RH
44 47 43 39 36 34 31 23 24 26 19 20 32 49 42 49 83 99 94 95 89 81 80 90 91 90 72 35 40 49 55 73 82 80 83 81 78 78 81 80 75 75 78
68 66 64 56 46 37 32 23 22 32 25 25 30 52 39 39 58 61 79 99 96 86 80 83 89 94 80 48 40 52 65 81 81 80 81 87 90 92 89 81 76 75 79
75 77 68 61 56 44 36 29 20 28 36 32 33 51 49 45 48 48 74 86 81 80 89 84 88 89 86 66 39 57 64 67 77 80 73 86 88 91 87 80 79 76 83
91 90 77 65 60 42 42 37 22 24 28 32 36 35 50 51 52 45 55 64 80 86 76 84 90 87 98 80 47 57 64 72 72 83 80 70 67 74 80 80 82 87 88
93 96 77 67 67 45 42 30 19 22 28 33 33 35 36 41 50 43 39 57 72 89 78 78 81 86 97 81 67 54 62 70 74 69 67 76 77 75 71 74 78 87 86
86 93 80 75 57 41 36 36 30 25 38 39 35 39 33 37 53 41 44 51 73 85 84 91 95 78 97 94 72 60 60 66 75 75 66 57 75 75 77 72 71 77 81
92 89 93 79 64 45 40 40 38 41 47 38 39 43 37 37 49 34 40 50 72 89 99 99 99 98 94 93 76 75 65 64 77 73 72 63 68 72 72 71 66 68 71
95 83 86 83 75 64 54 54 50 49 48 40 38 42 35 42 59 50 51 55 64 66 99 98 99 94 100 87 85 88 77 71 80 85 78 69 66 80 83 76 73 74 75
94 88 78 77 74 70 65 61 55 55 46 39 44 52 59 55 51 64 59 68 74 78 99 90 97 89 89 92 80 59 55 78 78 87 83 72 66 88 89 82 84 71 77
98 99 89 78 68 65 61 57 58 60 41 36 43 49 50 47 53 59 58 55 78 85 95 99 93 92 87 81 61 46 40 80 79 81 88 73 65 81 86 84 80 77 78
99 99 83 81 80 83 76 68 61 60 59 47 38 44 51 60 61 60 58 60 97 92 98 95 100 99 98 94 85 81 76 89 79 80 87 71 70 84 80 79 71 77 75
100 95 91 90 84 86 85 85 80 78 72 69 70 70 72 73 67 67 77 80 81 89 99 98 96 99 97 90 69 86 79 90 85 77 81 70 82 92 80 81 72 76 72
99 100 89 76 76 81 82 72 76 77 78 77 84 88 95 78 71 79 81 88 99 99 99 100 99 100 100 97 83 93 76 81 79 74 76 66 76 92 68 79 75 78 81
100 100 99 89 86 92 87 79 71 81 76 74 75 80 94 96 94 97 92 92 96 100 100 100 94 97 100 96 93 90 77 66 64 62 63 62 64 65 68 74 72 76 83
100 100 100 100 100 100 100 100 100 100 100 100 99 96 100 100 99 100 100 99 98 98 94 94 92 94 94 94 90 87 76 64 66 61 61 61 69 67 58 67 77 76 82
100 100 100 100 100 100 100 100 100 100 95 98 100 100 100 98 100 100 100 100 100 95 95 97 95 95 79 81 86 89 88 87 80 73 73 71 73 70 70 85 85 79 85
100 100 100 100 100 100 100 100 100 100 99 100 100 100 100 100 100 99 99 100 97 97 87 93 97 84 88 87 92 92 90 88 90 88 90 88 86 78 75 83 91 95 100
93 87 87 88 96 100 99 100 100 100 100 100 100 100 100 100 100 99 100 100 100 97 93 99 100 100 100 100 100 99 98 98 98 100 99 98 99 99 99 96 98 100 100
100 98 87 80 74 73 76 77 82 94 98 99 100 100 99 98 99 100 100 100 100 94 92 100 99 94 92 94 88 90 91 100 100 100 99 100 100 100 100 99 100 100 100
100 96 96 91 84 83 74 67 73 72 76 82 80 84 86 88 93 96 97 98 99 99 98 98 99 100 100 100 100 100 100 97 94 92 94 92 96 100 100 100 100 100 100
76 74 68 72 74 66 63 69 77 82 87 81 77 76 73 71 73 75 75 75 74 76 80 86 90 90 89 88 88 90 96 99 99 99 99 100 98 86 83 87 88 94 97
72 73 69 68 67 63 59 62 66 71 68 69 66 66 71 74 76 76 78 77 78 76 75 75 77 79 81 82 82 82 85 91 97 98 99 100 100 100 100 100 99 98 94
74 76 72 70 70 71 69 64 68 64 61 55 56 63 66 71 73 66 66 69 77 83 86 87 89 92 93 95 96 96 95 94 92 93 98 99 99 100 100 100 100 100 99
74 75 74 71 70 74 74 76 71 66 64 59 54 53 53 59 61 65 67 69 72 72 72 74 80 84 86 90 94 95 95 97 98 99 100 99 99 100 100 100 100 100 100
72 77 78 79 79 72 65 65 69 65 59 59 58 56 55 58 57 55 60 67 70 74 77 78 82 86 92 96 98 97 95 96 97 98 98 99 99 100 100 100 100 100 99
75 78 80 81 85 84 80 80 82 75 75 72 66 66 65 62 58 56 56 57 58 60 61 62 62 64 71 88 96 99 98 96 95 98 99 99 100 100 100 100 100 100 100
Wind_Speed
33 33 33 34 35 36 34 36 32 32 34 36 36 33 31 26 28 32 42 42 45 43 43 39 36 36 39 39 38 36 34 29 25 22 18 16 15 15 15 14 12 12 11
35 36 34 32 34 33 33 34 35 32 34 36 40 39 36 32 30 25 32 42 44 41 41 41 41 40 41 42 43 41 37 31 29 26 22 15 18 20 18 16 14 14 12
32 35 34 32 33 34 33 32 35 35 32 35 39 40 37 34 32 31 28 33 34 39 40 41 46 43 42 44 45 43 39 36 33 30 20 10 12 19 21 20 18 16 14
32 33 29 29 30 35 31 31 33 35 36 35 37 44 45 41 37 32 30 31 33 36 39 41 45 47 46 45 46 45 42 37 36 35 33 22 9 12 11 22 21 19 17
32 34 24 25 27 27 30 28 32 35 35 38 42 43 45 43 37 33 32 36 36 38 38 40 46 49 48 45 43 45 45 41 40 39 36 35 22 14 12 12 22 21 19
35 30 20 21 21 20 25 28 30 33 36 38 44 45 47 43 39 35 36 35 39 42 45 46 49 50 46 46 43 44 46 45 42 39 39 36 34 26 18 16 15 21 21
30 30 21 19 19 22 24 28 31 33 32 41 45 46 47 45 41 38 38 36 37 43 43 46 49 48 48 46 43 43 48 47 45 42 40 38 35 32 23 21 17 18 21
28 25 24 20 19 21 25 26 29 31 33 40 39 40 43 44 43 40 41 40 39 38 43 46 52 46 46 44 46 47 48 50 47 44 41 39 36 33 30 25 24 21 20
31 25 23 21 19 20 22 23 27 26 31 37 35 37 38 39 38 38 39 38 39 37 42 47 50 52 52 48 52 49 43 51 48 45 40 39 36 35 32 32 29 25 22
26 19 17 14 15 20 22 26 26 28 27 35 38 38 41 42 40 40 42 45 41 40 41 48 51 52 52 49 48 50 51 50 50 45 42 38 38 36 34 34 28 27 25
18 11 7 6 10 10 14 19 22 25 30 33 40 41 41 39 41 41 39 43 40 40 44 46 49 51 58 58 51 49 53 49 49 46 40 39 39 38 36 35 29 31 27
21 13 12 8 5 6 11 13 15 20 22 28 32 36 39 41 41 38 30 29 33 44 49 46 51 53 49 40 42 51 51 48 48 45 39 41 39 39 36 33 33 35 32
29 17 12 9 12 14 16 23 25 22 28 33 32 29 27 34 38 39 42 28 37 44 39 51 51 52 52 45 50 49 44 44 43 39 40 42 40 40 38 37 39 38 31
35 29 25 11 11 18 16 18 26 21 30 31 34 38 36 33 29 28 29 26 29 41 36 25 21 24 34 28 29 35 38 34 34 36 38 41 41 40 34 40 43 36 36
37 33 30 30 33 30 29 28 35 32 34 34 29 17 28 23 19 17 28 27 19 16 17 18 18 19 22 25 28 29 28 28 36 38 38 42 42 41 39 43 45 41 43
33 35 43 42 43 39 41 37 39 43 39 35 32 37 26 31 17 8 14 19 19 17 15 17 20 20 21 22 22 27 31 36 37 38 39 41 40 40 38 41 45 45 47
39 42 42 44 43 38 40 40 39 37 39 38 32 34 35 34 31 25 22 19 14 13 8 16 20 20 22 23 23 23 24 26 30 31 34 37 40 43 44 45 48 50 48
36 37 39 40 39 37 38 36 37 38 37 36 35 32 30 29 27 25 25 22 16 10 6 4 8 10 12 14 14 17 21 28 36 35 36 41 46 52 51 50 54 57 50
27 30 32 34 34 35 35 35 35 34 34 34 31 29 27 25 24 25 23 21 18 18 15 12 9 7 6 8 6 6 9 13 15 18 24 28 28 28 32 32 35 30 26
25 27 28 30 33 33 31 34 35 34 34 31 29 26 23 23 23 22 20 19 16 15 12 10 9 6 3 2 4 7 9 8 7 10 13 17 16 6 6 8 12 12 14
21 23 26 30 30 29 30 33 33 35 29 26 25 25 24 23 22 19 18 15 14 12 10 8 5 4 3 2 3 3 5 8 10 11 11 11 13 20 19 18 18 16 13
17 19 22 25 25 25 24 27 30 27 24 21 21 21 20 19 18 17 16 14 12 11 9 8 7 6 6 6 6 6 7 8 9 10 11 12 13 13 15 18 19 24 27
12 14 17 18 19 20 20 21 22 20 19 17 19 19 18 16 14 14 13 11 10 8 8 7 6 7 8 9 10 10 10 11 12 12 13 13 14 16 16 16 17 21 23
6 9 11 13 15 17 17 18 18 18 16 17 18 16 14 12 12 12 11 11 11 11 10 8 7 7 9 9 11 11 12 12 13 14 14 14 14 15 16 18 19 21 23
5 6 7 10 12 15 16 16 14 13 15 16 15 15 14 14 14 14 14 14 14 13 14 14 14 14 14 11 12 13 14 14 15 16 16 15 15 16 16 17 19 22 24
4 5 7 9 10 12 13 12 12 15 14 12 13 13 12 11 11 10 10 9 9 10 11 12 13 15 15 16 15 14 15 15 16 16 16 16 16 15 15 16 18 20 21
Wind_Direction
298 294 288 281 273 266 259 250 248 244 239 230 226 229 231 227 228 230 235 231 229 226 228 223 224 224 219 213 209 205 206 206 206 208 211 218 225 228 231 238 241 238 246
300 295 292 283 272 265 257 249 245 242 235 232 225 227 229 227 226 233 231 223 227 225 229 226 224 226 221 215 211 208 207 208 207 207 210 213 225 230 233 238 239 238 245
300 297 289 277 275 261 254 246 238 238 237 233 231 227 230 234 232 229 227 221 226 230 229 228 230 228 223 219 213 211 210 209 208 213 207 201 220 225 232 232 235 234 242
296 299 285 272 272 259 251 247 236 234 238 233 237 229 226 228 228 225 225 223 224 223 232 227 232 235 223 222 217 214 215 215 215 213 219 225 221 200 216 225 227 231 239
303 304 278 272 274 255 243 233 232 238 235 239 237 234 228 228 229 227 224 229 226 225 230 229 233 234 230 221 220 220 218 219 221 222 219 221 226 223 220 220 222 226 235
308 305 284 281 270 253 247 238 231 233 237 235 229 232 227 225 224 226 225 228 231 227 223 231 233 234 232 216 215 221 225 222 224 228 229 228 223 225 222 228 225 226 234
302 301 292 276 267 252 248 245 238 231 232 226 228 230 229 226 221 224 225 226 227 230 225 230 231 233 229 220 214 222 227 227 227 230 232 234 236 237 240 241 231 226 235
308 299 286 267 257 252 252 245 240 237 230 226 228 232 227 227 229 233 230 230 229 229 226 230 230 232 225 220 217 222 227 229 231 233 234 237 238 238 240 243 243 232 236
310 295 276 268 261 254 253 251 238 241 229 222 220 221 220 223 231 232 231 233 237 234 228 231 228 232 231 224 217 218 224 231 232 231 236 238 236 237 241 243 243 242 235
317 299 283 259 264 257 247 242 241 238 231 224 218 221 224 229 233 232 233 233 234 236 231 229 231 230 227 215 210 215 227 231 230 232 235 237 238 239 237 240 234 246 240
359 346 336 291 272 264 250 242 241 243 239 229 225 228 231 232 237 233 231 235 232 231 231 228 226 225 227 218 215 227 230 231 230 232 234 237 239 237 236 241 232 240 235
24 41 38 7 313 264 248 238 233 228 235 231 231 231 233 240 231 225 222 229 235 227 223 225 225 227 222 206 207 228 230 230 229 234 234 235 235 240 239 229 233 237 235
21 29 30 350 296 287 267 263 253 246 247 235 233 231 228 223 222 221 222 235 218 220 221 218 214 220 212 215 223 228 230 226 229 235 237 236 237 240 241 233 234 233 236
12 28 48 11 326 279 265 257 244 227 226 214 217 216 227 217 208 208 226 218 208 197 199 207 210 214 220 228 239 233 234 236 239 242 241 243 246 247 247 246 245 235 239
11 27 38 49 70 65 95 98 94 110 109 148 179 208 198 196 211 207 194 194 179 183 193 210 224 232 237 237 231 234 238 242 248 245 246 248 248 251 250 249 241 243 239
13 28 46 54 58 68 76 80 75 74 91 87 82 89 146 203 190 171 152 164 173 179 189 213 214 213 232 236 235 241 243 246 246 247 254 256 252 253 254 247 245 254 238
30 40 47 55 63 67 73 76 81 81 82 84 83 83 89 97 100 106 112 144 142 128 140 230 225 218 226 234 238 246 254 256 257 257 259 261 263 262 257 258 260 255 245
45 49 54 58 61 64 66 70 70 72 75 75 76 79 85 92 100 104 107 115 119 121 110 149 171 202 221 246 262 265 263 266 265 268 267 268 268 269 262 259 256 245 239
57 59 62 66 66 66 68 71 69 69 70 69 69 69 72 75 76 79 83 86 100 116 130 131 137 151 197 242 270 285 286 279 282 279 264 259 263 263 257 255 247 240 226
59 62 63 65 66 66 66 70 69 68 63 61 65 69 73 74 71 74 78 79 81 83 80 70 70 73 80 211 254 254 243 248 267 291 306 316 311 293 259 240 234 234 234
58 59 57 58 57 57 60 63 61 58 57 59 62 63 63 65 65 63 63 60 60 60 63 62 58 39 12 345 312 291 280 281 275 269 268 259 261 276 285 289 292 274 253
56 55 58 60 59 55 53 60 59 54 50 50 54 57 57 59 59 58 60 57 55 50 51 46 34 25 11 352 335 321 304 294 288 288 284 280 271 257 252 251 252 247 241
53 55 51 52 52 52 51 54 60 53 44 42 46 44 40 41 44 43 44 43 47 45 41 32 24 11 3 357 353 345 337 327 318 307 294 287 276 268 261 258 261 258 252
45 46 41 37 37 38 37 38 37 34 24 27 33 34 35 31 29 24 22 17 19 16 12 4 357 348 332 325 321 317 318 321 324 312 300 295 291 284 276 267 259 258 260
13 15 14 21 24 26 25 22 21 19 17 21 24 24 22 17 17 15 8 3 357 352 351 348 347 342 339 338 330 321 313 312 312 308 302 301 300 298 291 281 271 269 263
314 332 345 358 2 7 10 6 8 16 20 21 26 29 29 26 26 22 14 3 349 344 341 335 333 327 318 306 304 302 302 306 307 311 313 306 303 300 295 290 287 284 280